This is the latest recevied weather packets stored in our database for station/object OH6HPS. If no packets are shown the sender has not sent any weather packets the latest 10 day(s).
| Time | Temp. | Humidity | Pressure | Rain* | Wind** | Luminosity | Snow |
|---|---|---|---|---|---|---|---|
| 1788546373 | 10.56° C | 90% | 996 hPa | 0 mm | - | 0 W/m² | - |
| 1788545771 | 11.11° C | 90% | 996.1 hPa | 0 mm | - | 0 W/m² | - |
| 1788545169 | 11.11° C | 89% | 996.1 hPa | 0 mm | - | 0 W/m² | - |
| 1788544569 | 11.67° C | 88% | 996.2 hPa | 0 mm | - | 0 W/m² | - |
| 1788543970 | 12.22° C | 88% | 996.2 hPa | 0 mm | - | 0 W/m² | - |
| 1788543370 | 12.78° C | 87% | 996.2 hPa | 0 mm | - | 0 W/m² | - |
| 1788542769 | 12.78° C | 86% | 996.1 hPa | 0 mm | - | 0 W/m² | - |
| 1788542168 | 13.33° C | 86% | 996.2 hPa | 0 mm | - | 0 W/m² | - |
| 1788541566 | 13.89° C | 84% | 996.1 hPa | 0 mm | - | 7 W/m² | - |
| 1788540967 | 14.44° C | 84% | 996.1 hPa | 0 mm | - | 12 W/m² | - |
| 1788540367 | 14.44° C | 83% | 996 hPa | 0 mm | - | 16 W/m² | - |
| 1788539778 | 15° C | 82% | 996.2 hPa | 0 mm | - | 19 W/m² | - |
| 1788539166 | 15.56° C | 80% | 996.2 hPa | 0 mm | - | 21 W/m² | - |
| 1788538566 | 16.11° C | 78% | 996.2 hPa | 0 mm | - | 25 W/m² | - |
| 1788537966 | 16.67° C | 75% | 996.2 hPa | 0 mm | - | 25 W/m² | - |
| 1788537364 | 16.67° C | 73% | 996.2 hPa | 0 mm | - | 25 W/m² | - |
| 1788536763 | 17.22° C | 71% | 996.4 hPa | 0 mm | - | 27 W/m² | - |
| 1788536162 | 17.22° C | 73% | 996.4 hPa | 0 mm | - | 44 W/m² | - |
| 1788535562 | 17.22° C | 70% | 996.5 hPa | 0 mm | - | 48 W/m² | - |
| 1788534963 | 17.78° C | 68% | 996.4 hPa | 0 mm | - | 42 W/m² | - |
| 1788534363 | 17.78° C | 70% | 996.5 hPa | 0 mm | - | 55 W/m² | - |
| 1788533762 | 17.78° C | 69% | 996.4 hPa | 0 mm | - | 167 W/m² | - |
| 1788533163 | 18.33° C | 72% | 996.5 hPa | 0 mm | - | 285 W/m² | - |
| 1788532563 | 17.78° C | 69% | 996.5 hPa | 0 mm | - | 354 W/m² | - |
| 1788531962 | 17.78° C | 74% | 996.5 hPa | 0 mm | - | 339 W/m² | - |
* Rain latest hour (hover to see other rain measurements)
** Current wind speed in m/s (hover to see current wind gust speed)